,,,PA_Meas_PMT16A,,PR_Meas_QMR101_102,,RH_Meas_QMH101,,SR_Meas_QMS101,,TA_Meas_QMH101,,GenWind,,GenWind,
date,time,status,PA,status,PR,status,RH,status,SR,status,TA,status,DirAvg,status,SpdAvg,
2011-04-10, 00:00:04,VALID,1005.47,VALID,0,VALID,94.3692,VALID,0,VALID,25.8434,VALID,351,VALID,0.9375,
2011-04-10, 00:01:04,VALID,1005.47,VALID,0,VALID,94.2243,VALID,0,VALID,25.9038,VALID,341,VALID,0.674219,
2011-04-10, 00:02:04,VALID,1005.48,VALID,0,VALID,94.0717,VALID,0,VALID,25.9018,VALID,357,VALID,1.01406,
2011-04-10, 00:03:04,VALID,1005.46,VALID,0,VALID,93.7818,VALID,0,VALID,25.9018,VALID,349,VALID,0.898047,
2011-04-10, 00:04:04,VALID,1005.46,VALID,0,VALID,93.4767,VALID,0,VALID,25.9602,VALID,326,VALID,0.823047,
2011-04-10, 00:05:04,VALID,1005.44,VALID,0,VALID,93.6369,VALID,0,VALID,25.9602,VALID,284,VALID,0.3625,
2011-04-10, 00:06:04,VALID,1005.45,VALID,0,VALID,93.3699,VALID,0,VALID,25.9602,VALID,301,VALID,0.860156,
2011-04-10, 00:07:04,VALID,1005.45,VALID,0,VALID,92.9579,VALID,0,VALID,25.9817,VALID,351,VALID,0.927734,
2011-04-10, 00:08:04,VALID,1005.43,VALID,0,VALID,92.7443,VALID,0,VALID,25.9797,VALID,342,VALID,0.930859,
2011-04-10, 00:09:04,VALID,1005.43,VALID,0,VALID,93.0647,VALID,0,VALID,25.9992,VALID,15,VALID,0.519141,
2011-04-10, 00:10:04,VALID,1005.41,VALID,0,VALID,93.3775,VALID,0,VALID,25.9797,VALID,297,VALID,0.603906,
2011-04-10, 00:11:04,VALID,1005.45,VALID,0,VALID,93.5301,VALID,0,VALID,25.9602,VALID,352,VALID,0.790625,
2011-04-10, 00:12:04,VALID,1005.45,VALID,0,VALID,93.4233,VALID,0,VALID,25.9408,VALID,1,VALID,0.4625,
2011-04-10, 00:13:04,VALID,1005.46,VALID,0,VALID,93.6064,VALID,0,VALID,25.9408,VALID,7,VALID,0.409375,
2011-04-10, 00:14:04,VALID,1005.45,VALID,0,VALID,93.9191,VALID,0,VALID,25.9213,VALID,354,VALID,0.907422,
2011-04-10, 00:15:04,VALID,1005.41,VALID,0,VALID,94.2319,VALID,0,VALID,25.9622,VALID,309,VALID,0.211328,
2011-04-10, 00:16:04,VALID,1005.43,VALID,0,VALID,94.3845,VALID,0,VALID,25.9232,VALID,332,VALID,0.132422,
2011-04-10, 00:17:04,VALID,1005.42,VALID,0,VALID,94.2624,VALID,0,VALID,25.9038,VALID,320,VALID,0.707812,
2011-04-10, 00:18:04,VALID,1005.42,VALID,0,VALID,94.0336,VALID,0,VALID,25.9038,VALID,343,VALID,0.634375,
2011-04-10, 00:19:04,VALID,1005.42,VALID,0,VALID,94.56,VALID,0,VALID,25.8823,VALID,313,VALID,0.342969,
2011-04-10, 00:20:04,VALID,1005.41,VALID,0,VALID,94.56,VALID,0,VALID,25.9038,VALID,313,VALID,0.263672,
2011-04-10, 00:21:04,VALID,1005.38,VALID,0,VALID,94.9185,VALID,0,VALID,25.8629,VALID,313,VALID,0.148438,
2011-04-10, 00:22:04,VALID,1005.38,VALID,0,VALID,95.2542,VALID,0,VALID,25.8434,VALID,358,VALID,0.645312,
2011-04-10, 00:23:04,VALID,1005.33,VALID,0,VALID,95.4831,VALID,0,VALID,25.8259,VALID,353,VALID,0.600781,
2011-04-10, 00:24:04,VALID,1005.31,VALID,0,VALID,95.8569,VALID,0,VALID,25.8064,VALID,346,VALID,0.532812,
2011-04-10, 00:25:04,VALID,1005.33,VALID,0,VALID,96.0552,VALID,0,VALID,25.785,VALID,333,VALID,0.106641,
2011-04-10, 00:26:04,VALID,1005.3,VALID,0,VALID,96.3756,VALID,0,VALID,25.7655,VALID,290,VALID,0.445703,
2011-04-10, 00:27:04,VALID,1005.31,VALID,0,VALID,96.5893,VALID,0,VALID,25.748,VALID,321,VALID,0.453906,
2011-04-10, 00:28:04,VALID,1005.3,VALID,0,VALID,96.6655,VALID,0,VALID,25.7285,VALID,332,VALID,0.439844,
2011-04-10, 00:29:04,VALID,1005.34,VALID,0,VALID,96.7647,VALID,0,VALID,25.7071,VALID,328,VALID,0.309375,
2011-04-10, 00:30:04,VALID,1005.34,VALID,0,VALID,97.0241,VALID,0,VALID,25.6681,VALID,347,VALID,0.385547,
2011-04-10, 00:31:04,VALID,1005.35,VALID,0,VALID,96.9631,VALID,0,VALID,25.67,VALID,5,VALID,0.729297,
2011-04-10, 00:32:04,VALID,1005.36,VALID,0,VALID,97.1614,VALID,0,VALID,25.6486,VALID,4,VALID,0.472266,
2011-04-10, 00:33:04,VALID,1005.32,VALID,0,VALID,97.3445,VALID,0,VALID,25.6292,VALID,349,VALID,0.612109,
2011-04-10, 00:34:04,VALID,1005.33,VALID,0,VALID,97.581,VALID,0,VALID,25.6116,VALID,348,VALID,0.606641,
2011-04-10, 00:35:04,VALID,1005.3,VALID,0,VALID,97.5429,VALID,0,VALID,25.5298,VALID,353,VALID,0.872656,
2011-04-10, 00:36:04,VALID,1005.3,VALID,0,VALID,97.8938,VALID,0,VALID,25.5318,VALID,354,VALID,0.691797,
2011-04-10, 00:37:04,VALID,1005.29,VALID,0,VALID,98.2142,VALID,0,VALID,25.4734,VALID,352,VALID,0.443359,
2011-04-10, 00:38:04,VALID,1005.3,VALID,0,VALID,98.5575,VALID,0,VALID,25.4149,VALID,342,VALID,0.637891,
2011-04-10, 00:39:04,VALID,1005.29,VALID,0,VALID,98.9084,VALID,0,VALID,25.3935,VALID,343,VALID,0.219531,
2011-04-10, 00:40:04,VALID,1005.29,VALID,0,VALID,99.3738,VALID,0,VALID,25.3565,VALID,343,VALID,0,
2011-04-10, 00:41:04,VALID,1005.3,VALID,0,VALID,99.801,VALID,0,VALID,25.337,VALID,343,VALID,0.146484,
2011-04-10, 00:42:04,VALID,1005.27,VALID,0,VALID,100.282,VALID,0,VALID,25.3195,VALID,343,VALID,0.0382813,
2011-04-10, 00:43:04,VALID,1005.26,VALID,0,VALID,100.808,VALID,0,VALID,25.2786,VALID,343,VALID,0.0425781,
2011-04-10, 00:44:04,VALID,1005.23,VALID,0,VALID,100.739,VALID,0,VALID,25.2592,VALID,344,VALID,0.18125,
2011-04-10, 00:45:04,VALID,1005.2,VALID,0,VALID,101.487,VALID,0,VALID,25.2397,VALID,344,VALID,0.279687,
2011-04-10, 00:46:04,VALID,1005.18,VALID,0,VALID,101.334,VALID,0,VALID,25.2416,VALID,346,VALID,0.45625,
2011-04-10, 00:47:04,VALID,1005.15,VALID,0,VALID,101.487,VALID,0,VALID,25.2416,VALID,334,VALID,0.449219,
2011-04-10, 00:48:04,VALID,1005.16,VALID,0,VALID,101.968,VALID,0,VALID,25.2007,VALID,347,VALID,0.620703,
2011-04-10, 00:49:04,VALID,1005.15,VALID,0,VALID,102.677,VALID,0,VALID,25.1442,VALID,348,VALID,0.435156,
2011-04-10, 00:50:04,VALID,1005.16,VALID,0,VALID,104,VALID,0,VALID,25.0644,VALID,347,VALID,0.304297,
2011-04-10, 00:51:04,VALID,1005.14,VALID,0,INVALID,109.726,VALID,0,VALID,24.9866,VALID,347,VALID,0.345313,
2011-04-10, 00:52:04,VALID,1005.16,VALID,0,INVALID,120.841,VALID,0.100563,VALID,24.9068,VALID,347,VALID,0.230859,
2011-04-10, 00:53:04,VALID,1005.17,VALID,0,INVALID,145.101,VALID,0,VALID,24.9106,VALID,348,VALID,0.205469,
2011-04-10, 00:54:04,VALID,1005.19,VALID,0,INVALID,163.609,VALID,0,VALID,24.8697,VALID,347,VALID,0.177344,
2011-04-10, 00:55:04,VALID,1005.19,VALID,0,INVALID,163.662,VALID,0,VALID,24.8308,VALID,347,VALID,0.215625,
2011-04-10, 00:56:04,VALID,1005.19,VALID,0,INVALID,163.617,VALID,0,VALID,24.8308,VALID,347,VALID,0.229297,
2011-04-10, 00:57:04,VALID,1005.19,VALID,0,INVALID,163.647,VALID,0,VALID,24.7919,VALID,348,VALID,0.0632813,
2011-04-10, 00:58:04,VALID,1005.18,VALID,0,INVALID,163.693,VALID,0,VALID,24.7919,VALID,348,VALID,0.410156,
2011-04-10, 00:59:04,VALID,1005.19,VALID,0,INVALID,163.647,VALID,0,VALID,24.7743,VALID,347,VALID,0.464453,
2011-04-10, 01:00:04,VALID,1005.18,VALID,0,INVALID,163.655,VALID,0,VALID,24.7529,VALID,347,VALID,0.114453,
2011-04-10, 01:01:04,VALID,1005.17,VALID,0,INVALID,163.678,VALID,0,VALID,24.7335,VALID,348,VALID,0.500781,
2011-04-10, 01:02:04,VALID,1005.16,VALID,0,INVALID,163.67,VALID,0,VALID,24.6537,VALID,348,VALID,0.598047,
2011-04-10, 01:03:04,VALID,1005.17,VALID,0,INVALID,163.708,VALID,0.100563,VALID,24.5972,VALID,348,VALID,0.458984,
2011-04-10, 01:04:04,VALID,1005.14,VALID,0,INVALID,163.678,VALID,0,VALID,24.5388,VALID,348,VALID,0.439453,
2011-04-10, 01:05:04,VALID,1005.14,VALID,0,INVALID,163.662,VALID,0,VALID,24.4609,VALID,348,VALID,0.456641,
2011-04-10, 01:06:04,VALID,1005.14,VALID,0,INVALID,163.701,VALID,0,VALID,24.3636,VALID,348,VALID,0.403906,
2011-04-10, 01:07:04,VALID,1005.16,VALID,0,INVALID,163.708,VALID,0,VALID,24.3033,VALID,348,VALID,0.340234,
2011-04-10, 01:08:04,VALID,1005.14,VALID,0,INVALID,163.701,VALID,0.100563,VALID,24.2662,VALID,348,VALID,0.4875,
2011-04-10, 01:09:04,VALID,1005.11,VALID,0,INVALID,163.708,VALID,0,VALID,24.2273,VALID,348,VALID,0.445703,
2011-04-10, 01:10:04,VALID,1005.11,VALID,0,INVALID,163.731,VALID,0,VALID,24.2273,VALID,348,VALID,0.361719,
2011-04-10, 01:11:04,VALID,1005.12,VALID,0,INVALID,163.723,VALID,0,VALID,24.1884,VALID,348,VALID,0.344531,
2011-04-10, 01:12:04,VALID,1005.09,VALID,0,INVALID,163.685,VALID,0,VALID,24.1865,VALID,348,VALID,0.423438,
2011-04-10, 01:13:04,VALID,1005.08,VALID,0,INVALID,163.708,VALID,0,VALID,24.1884,VALID,348,VALID,0.175,
2011-04-10, 01:14:04,VALID,1005.06,VALID,0,INVALID,163.716,VALID,0,VALID,24.1884,VALID,348,VALID,0.272656,
2011-04-10, 01:15:04,VALID,1005.03,VALID,0,INVALID,163.693,VALID,0,VALID,24.2078,VALID,348,VALID,0.439844,
2011-04-10, 01:16:04,VALID,1005.01,VALID,0,INVALID,163.708,VALID,0.100563,VALID,24.1884,VALID,348,VALID,0.385156,
2011-04-10, 01:17:04,VALID,1005.04,VALID,0,INVALID,163.716,VALID,0,VALID,24.2078,VALID,348,VALID,0.383984,
2011-04-10, 01:18:04,VALID,1004.96,VALID,0,INVALID,163.685,VALID,0.100563,VALID,24.1689,VALID,348,VALID,0.323828,
2011-04-10, 01:19:04,VALID,1004.96,VALID,0,INVALID,163.708,VALID,0,VALID,24.1494,VALID,348,VALID,0.463281,
2011-04-10, 01:20:04,VALID,1004.96,VALID,0,INVALID,163.708,VALID,0.100563,VALID,24.1105,VALID,348,VALID,0.384766,
2011-04-10, 01:21:04,VALID,1004.93,VALID,0,INVALID,163.708,VALID,0,VALID,24.0503,VALID,348,VALID,0.359375,
2011-04-10, 01:22:04,VALID,1004.91,VALID,0,INVALID,163.708,VALID,0.100563,VALID,24.0326,VALID,348,VALID,0.360156,
2011-04-10, 01:23:04,VALID,1004.89,VALID,0,INVALID,163.716,VALID,0.100563,VALID,23.9724,VALID,348,VALID,0.440234,
2011-04-10, 01:24:04,VALID,1004.9,VALID,0,INVALID,163.708,VALID,0.100563,VALID,23.9724,VALID,348,VALID,0.464453,
2011-04-10, 01:25:04,VALID,1004.91,VALID,0,INVALID,163.739,VALID,0.100563,VALID,23.953,VALID,348,VALID,0.417188,
2011-04-10, 01:26:04,VALID,1004.9,VALID,0,INVALID,163.723,VALID,0,VALID,23.953,VALID,348,VALID,0.449219,
2011-04-10, 01:27:04,VALID,1004.88,VALID,0,INVALID,163.731,VALID,0.100563,VALID,23.9335,VALID,348,VALID,0.358984,
2011-04-10, 01:28:04,VALID,1004.85,VALID,0,INVALID,163.739,VALID,0,VALID,23.9742,VALID,348,VALID,0.246484,
2011-04-10, 01:29:04,VALID,1004.89,VALID,0,INVALID,163.731,VALID,0,VALID,23.9353,VALID,348,VALID,0.316016,
2011-04-10, 01:30:04,VALID,1004.83,VALID,0,INVALID,163.723,VALID,0,VALID,23.9335,VALID,348,VALID,0.283984,
2011-04-10, 01:31:04,VALID,1004.84,VALID,0,INVALID,163.708,VALID,0.100563,VALID,23.9353,VALID,348,VALID,0.422656,
2011-04-10, 01:32:04,VALID,1004.8,VALID,0,INVALID,163.723,VALID,0.100563,VALID,23.9353,VALID,348,VALID,0.453516,
2011-04-10, 01:33:04,VALID,1004.76,VALID,0,INVALID,163.716,VALID,0.100563,VALID,23.914,VALID,348,VALID,0.509766,
2011-04-10, 01:34:04,VALID,1004.77,VALID,0,INVALID,163.746,VALID,0.100563,VALID,23.9353,VALID,348,VALID,0.301562,
2011-04-10, 01:35:04,VALID,1004.78,VALID,0,INVALID,163.731,VALID,0.100563,VALID,23.9353,VALID,348,VALID,0.258594,
2011-04-10, 01:36:04,VALID,1004.77,VALID,0,INVALID,163.754,VALID,0,VALID,23.9159,VALID,348,VALID,0.335547,
2011-04-10, 01:37:04,VALID,1004.77,VALID,0,INVALID,163.708,VALID,0.100563,VALID,23.9335,VALID,348,VALID,0.373828,
2011-04-10, 01:38:04,VALID,1004.8,VALID,0,INVALID,163.731,VALID,0.100563,VALID,23.9353,VALID,348,VALID,0.316406,
2011-04-10, 01:39:04,VALID,1004.77,VALID,0,INVALID,163.739,VALID,0,VALID,23.8946,VALID,348,VALID,0.282031,
2011-04-10, 01:40:04,VALID,1004.77,VALID,0,INVALID,163.762,VALID,0.100563,VALID,23.9159,VALID,348,VALID,0.213672,
2011-04-10, 01:41:04,VALID,1004.75,VALID,0,INVALID,163.739,VALID,0.100563,VALID,23.914,VALID,348,VALID,0.259375,
2011-04-10, 01:42:04,VALID,1004.74,VALID,0,INVALID,163.739,VALID,0,VALID,23.8946,VALID,348,VALID,0.180469,
2011-04-10, 01:43:04,VALID,1004.75,VALID,0,INVALID,163.739,VALID,0.100563,VALID,23.8964,VALID,348,VALID,0.162891,
2011-04-10, 01:44:04,VALID,1004.72,VALID,0,INVALID,163.739,VALID,0.100563,VALID,23.8964,VALID,348,VALID,0.214453,
2011-04-10, 01:45:04,VALID,1004.72,VALID,0,INVALID,163.746,VALID,0.100563,VALID,23.8751,VALID,348,VALID,0.249609,
2011-04-10, 01:46:04,VALID,1004.72,VALID,0,INVALID,163.716,VALID,0,VALID,23.8964,VALID,348,VALID,0.342969,
2011-04-10, 01:47:04,VALID,1004.73,VALID,0,INVALID,163.723,VALID,0.100563,VALID,23.8982,VALID,348,VALID,0.334375,
2011-04-10, 01:48:04,VALID,1004.76,VALID,0,INVALID,163.762,VALID,0.100563,VALID,23.8964,VALID,348,VALID,0.239453,
2011-04-10, 01:49:04,VALID,1004.73,VALID,0,INVALID,163.708,VALID,0.100563,VALID,23.8964,VALID,348,VALID,0.330078,
2011-04-10, 01:50:04,VALID,1004.73,VALID,0,INVALID,163.739,VALID,0.100563,VALID,23.8946,VALID,348,VALID,0.272266,
2011-04-10, 01:51:04,VALID,1004.76,VALID,0,INVALID,163.754,VALID,0.100563,VALID,23.8964,VALID,348,VALID,0.255469,
2011-04-10, 01:52:04,VALID,1004.74,VALID,0,INVALID,163.739,VALID,0.100563,VALID,23.8751,VALID,348,VALID,0.390234,
2011-04-10, 01:53:04,VALID,1004.74,VALID,0,INVALID,163.731,VALID,0,VALID,23.8556,VALID,348,VALID,0.373047,
2011-04-10, 01:54:04,VALID,1004.74,VALID,0,INVALID,163.739,VALID,0.100563,VALID,23.8556,VALID,348,VALID,0.240234,
2011-04-10, 01:55:04,VALID,1004.75,VALID,0,INVALID,163.731,VALID,0,VALID,23.8769,VALID,348,VALID,0.338672,
2011-04-10, 01:56:04,VALID,1004.74,VALID,0,INVALID,163.723,VALID,0.100563,VALID,23.8769,VALID,348,VALID,0.341797,
2011-04-10, 01:57:04,VALID,1004.72,VALID,0,INVALID,163.746,VALID,0,VALID,23.8751,VALID,348,VALID,0.146484,
2011-04-10, 01:58:04,VALID,1004.73,VALID,0,INVALID,163.746,VALID,0,VALID,23.8769,VALID,348,VALID,0.255078,
2011-04-10, 01:59:04,VALID,1004.69,VALID,0,INVALID,163.731,VALID,0.100563,VALID,23.8556,VALID,348,VALID,0.216797,
2011-04-10, 02:00:04,VALID,1004.68,VALID,0,INVALID,163.731,VALID,0.100563,VALID,23.8362,VALID,348,VALID,0.127734,
2011-04-10, 02:01:04,VALID,1004.7,VALID,0,INVALID,163.746,VALID,0.100563,VALID,23.8362,VALID,348,VALID,0,
2011-04-10, 02:02:04,VALID,1004.67,VALID,0,INVALID,163.762,VALID,0.100563,VALID,23.8575,VALID,348,VALID,0.117188,
2011-04-10, 02:03:04,VALID,1004.67,VALID,0,INVALID,163.731,VALID,0.100563,VALID,23.8575,VALID,348,VALID,0.211328,
2011-04-10, 02:04:04,VALID,1004.66,VALID,0,INVALID,163.731,VALID,0.100563,VALID,23.8362,VALID,348,VALID,0.223828,
2011-04-10, 02:05:04,VALID,1004.6,VALID,0,INVALID,163.746,VALID,0.100563,VALID,23.8769,VALID,348,VALID,0.188672,
2011-04-10, 02:06:04,VALID,1004.58,VALID,0,INVALID,163.723,VALID,0,VALID,23.8964,VALID,348,VALID,0.424609,
2011-04-10, 02:07:04,VALID,1004.58,VALID,0,INVALID,163.739,VALID,0,VALID,23.8769,VALID,348,VALID,0.382031,
2011-04-10, 02:08:04,VALID,1004.55,VALID,0,INVALID,163.716,VALID,0.100563,VALID,23.8362,VALID,349,VALID,0.542188,
2011-04-10, 02:09:04,VALID,1004.55,VALID,0,INVALID,163.754,VALID,0.100563,VALID,23.8575,VALID,349,VALID,0.604297,
2011-04-10, 02:10:04,VALID,1004.57,VALID,0,INVALID,163.746,VALID,0,VALID,23.8167,VALID,4,VALID,0.667578,
2011-04-10, 02:11:04,VALID,1004.56,VALID,0,INVALID,163.708,VALID,0.100563,VALID,23.7973,VALID,346,VALID,0.458203,
2011-04-10, 02:12:04,VALID,1004.58,VALID,0,INVALID,163.746,VALID,0.100563,VALID,23.7778,VALID,343,VALID,0.557031,
2011-04-10, 02:13:04,VALID,1004.55,VALID,0,INVALID,163.762,VALID,0,VALID,23.8556,VALID,343,VALID,0.466797,
2011-04-10, 02:14:04,VALID,1004.57,VALID,0,INVALID,163.716,VALID,0,VALID,23.8964,VALID,328,VALID,0.511328,
2011-04-10, 02:15:04,VALID,1004.57,VALID,0,INVALID,163.739,VALID,0,VALID,23.9548,VALID,340,VALID,0.405078,
2011-04-10, 02:16:04,VALID,1004.54,VALID,0,INVALID,163.716,VALID,0,VALID,24.0132,VALID,342,VALID,0.457422,
2011-04-10, 02:17:04,VALID,1004.5,VALID,0,INVALID,163.716,VALID,0,VALID,24.091,VALID,323,VALID,0.575781,
2011-04-10, 02:18:04,VALID,1004.49,VALID,0,INVALID,163.746,VALID,0,VALID,24.1884,VALID,324,VALID,0.352344,
2011-04-10, 02:19:04,VALID,1004.47,VALID,0,INVALID,163.701,VALID,0,VALID,24.2078,VALID,346,VALID,0.335938,
2011-04-10, 02:20:04,VALID,1004.5,VALID,0,INVALID,163.708,VALID,0,VALID,24.2255,VALID,346,VALID,0.24375,
2011-04-10, 02:21:04,VALID,1004.5,VALID,0,INVALID,163.701,VALID,0,VALID,24.2875,VALID,347,VALID,0.282813,
2011-04-10, 02:22:04,VALID,1004.5,VALID,0,INVALID,163.708,VALID,0,VALID,24.3052,VALID,360,VALID,0.361328,
2011-04-10, 02:23:04,VALID,1004.49,VALID,0,INVALID,163.708,VALID,0,VALID,24.3033,VALID,360,VALID,0.162109,
2011-04-10, 02:24:04,VALID,1004.49,VALID,0,INVALID,163.693,VALID,0,VALID,24.3636,VALID,360,VALID,0.133984,
2011-04-10, 02:25:04,VALID,1004.47,VALID,0,INVALID,163.716,VALID,0,VALID,24.383,VALID,360,VALID,0.0832031,
2011-04-10, 02:26:04,VALID,1004.49,VALID,0,INVALID,163.701,VALID,0.100563,VALID,24.3617,VALID,353,VALID,0.351172,
2011-04-10, 02:27:04,VALID,1004.44,VALID,0,INVALID,163.693,VALID,0,VALID,24.383,VALID,352,VALID,0.116797,
2011-04-10, 02:28:04,VALID,1004.47,VALID,0,INVALID,163.678,VALID,0.100563,VALID,24.4025,VALID,344,VALID,0.185937,
2011-04-10, 02:29:04,VALID,1004.46,VALID,0,INVALID,163.723,VALID,0.100563,VALID,24.4414,VALID,330,VALID,0.0367187,
2011-04-10, 02:30:04,VALID,1004.44,VALID,0,INVALID,163.693,VALID,0,VALID,24.4396,VALID,330,VALID,0.287109,
2011-04-10, 02:31:04,VALID,1004.43,VALID,0,INVALID,163.685,VALID,0,VALID,24.4804,VALID,330,VALID,0,
2011-04-10, 02:32:04,VALID,1004.44,VALID,0,INVALID,163.685,VALID,0.100563,VALID,24.5193,VALID,2,VALID,0.426562,
2011-04-10, 02:33:04,VALID,1004.41,VALID,0,INVALID,163.67,VALID,0,VALID,24.5388,VALID,358,VALID,0.285156,
2011-04-10, 02:34:04,VALID,1004.43,VALID,0,INVALID,163.685,VALID,0.100563,VALID,24.5582,VALID,357,VALID,0.203906,
2011-04-10, 02:35:04,VALID,1004.44,VALID,0,INVALID,163.662,VALID,0,VALID,24.5777,VALID,348,VALID,0.0644531,
2011-04-10, 02:36:04,VALID,1004.43,VALID,0,INVALID,163.685,VALID,0,VALID,24.5972,VALID,344,VALID,0.402734,
2011-04-10, 02:37:04,VALID,1004.44,VALID,0,INVALID,163.678,VALID,0,VALID,24.5972,VALID,344,VALID,0.237891,
2011-04-10, 02:38:04,VALID,1004.43,VALID,0,INVALID,163.67,VALID,0,VALID,24.6166,VALID,342,VALID,0.164453,
2011-04-10, 02:39:04,VALID,1004.46,VALID,0,INVALID,163.685,VALID,0,VALID,24.5972,VALID,342,VALID,0.347266,
2011-04-10, 02:40:04,VALID,1004.44,VALID,0,INVALID,163.678,VALID,0,VALID,24.6166,VALID,343,VALID,0.274609,
2011-04-10, 02:41:04,VALID,1004.46,VALID,0,INVALID,163.655,VALID,0,VALID,24.6166,VALID,343,VALID,0.28125,
2011-04-10, 02:42:04,VALID,1004.46,VALID,0,INVALID,163.685,VALID,0,VALID,24.6166,VALID,343,VALID,0.0730469,
2011-04-10, 02:43:04,VALID,1004.47,VALID,0,INVALID,163.67,VALID,0,VALID,24.6166,VALID,343,VALID,0.238281,
2011-04-10, 02:44:04,VALID,1004.48,VALID,0,INVALID,163.678,VALID,0,VALID,24.5953,VALID,343,VALID,0.354297,
2011-04-10, 02:45:04,VALID,1004.47,VALID,0,INVALID,163.685,VALID,0,VALID,24.5564,VALID,343,VALID,0.480469,
2011-04-10, 02:46:04,VALID,1004.5,VALID,0,INVALID,163.678,VALID,0,VALID,24.5193,VALID,343,VALID,0.58125,
2011-04-10, 02:47:04,VALID,1004.49,VALID,0,INVALID,163.701,VALID,0.100563,VALID,24.4609,VALID,345,VALID,0.553125,
2011-04-10, 02:48:04,VALID,1004.53,VALID,0,INVALID,163.716,VALID,0.100563,VALID,24.422,VALID,349,VALID,0.734766,
2011-04-10, 02:49:04,VALID,1004.55,VALID,0,INVALID,163.693,VALID,0,VALID,24.3636,VALID,348,VALID,0.651172,
2011-04-10, 02:50:04,VALID,1004.56,VALID,0,INVALID,163.716,VALID,0,VALID,24.3441,VALID,346,VALID,0.521484,
2011-04-10, 02:51:04,VALID,1004.55,VALID,0,INVALID,163.723,VALID,0.100563,VALID,24.3052,VALID,346,VALID,0.472266,
2011-04-10, 02:52:04,VALID,1004.53,VALID,0,INVALID,163.701,VALID,0,VALID,24.3246,VALID,345,VALID,0.630859,
2011-04-10, 02:53:04,VALID,1004.53,VALID,0,INVALID,163.708,VALID,0,VALID,24.3052,VALID,337,VALID,0.499219,
2011-04-10, 02:54:04,VALID,1004.52,VALID,0,INVALID,163.716,VALID,0,VALID,24.2662,VALID,337,VALID,0.400391,
2011-04-10, 02:55:04,VALID,1004.53,VALID,0,INVALID,163.701,VALID,0,VALID,24.2468,VALID,337,VALID,0.454688,
2011-04-10, 02:56:04,VALID,1004.52,VALID,0,INVALID,163.678,VALID,0,VALID,24.2291,VALID,2,VALID,0.782422,
2011-04-10, 02:57:04,VALID,1004.51,VALID,0,INVALID,163.701,VALID,0,VALID,24.2291,VALID,1,VALID,0.751562,
2011-04-10, 02:58:04,VALID,1004.5,VALID,0,INVALID,163.708,VALID,0,VALID,24.2273,VALID,360,VALID,0.620703,
2011-04-10, 02:59:04,VALID,1004.46,VALID,0,INVALID,163.731,VALID,0,VALID,24.2273,VALID,360,VALID,0.727344,
2011-04-10, 03:00:04,VALID,1004.44,VALID,0,INVALID,163.701,VALID,0,VALID,24.2255,VALID,353,VALID,0.819922,
2011-04-10, 03:01:04,VALID,1004.42,VALID,0,INVALID,163.731,VALID,0.100563,VALID,24.2857,VALID,350,VALID,0.632031,
2011-04-10, 03:02:04,VALID,1004.4,VALID,0,INVALID,163.716,VALID,0,VALID,24.3654,VALID,350,VALID,0.408203,
2011-04-10, 03:03:04,VALID,1004.41,VALID,0,INVALID,163.708,VALID,0,VALID,24.3636,VALID,350,VALID,0.418359,
2011-04-10, 03:04:04,VALID,1004.37,VALID,0,INVALID,163.685,VALID,0,VALID,24.3636,VALID,350,VALID,0.451172,
2011-04-10, 03:05:04,VALID,1004.36,VALID,0,INVALID,163.716,VALID,0,VALID,24.3246,VALID,350,VALID,0.470703,
2011-04-10, 03:06:04,VALID,1004.35,VALID,0,INVALID,163.701,VALID,0.100563,VALID,24.3441,VALID,350,VALID,0.505078,
2011-04-10, 03:07:04,VALID,1004.33,VALID,0,INVALID,163.701,VALID,0,VALID,24.3441,VALID,350,VALID,0.292188,
2011-04-10, 03:08:04,VALID,1004.31,VALID,0,INVALID,163.708,VALID,0,VALID,24.3636,VALID,350,VALID,0.390234,
2011-04-10, 03:09:04,VALID,1004.27,VALID,0,INVALID,163.693,VALID,0,VALID,24.3654,VALID,350,VALID,0.369922,
2011-04-10, 03:10:04,VALID,1004.25,VALID,0,INVALID,163.701,VALID,0,VALID,24.3441,VALID,350,VALID,0.209766,
2011-04-10, 03:11:04,VALID,1004.23,VALID,0,INVALID,163.716,VALID,0.100563,VALID,24.3052,VALID,350,VALID,0,
2011-04-10, 03:12:04,VALID,1004.21,VALID,0,INVALID,163.693,VALID,0,VALID,24.3052,VALID,349,VALID,0.249219,
2011-04-10, 03:13:04,VALID,1004.2,VALID,0,INVALID,163.693,VALID,0,VALID,24.2857,VALID,349,VALID,0.133984,
2011-04-10, 03:14:04,VALID,1004.23,VALID,0,INVALID,163.708,VALID,0,VALID,24.2857,VALID,349,VALID,0,
2011-04-10, 03:15:04,VALID,1004.2,VALID,0,INVALID,163.701,VALID,0,VALID,24.2857,VALID,349,VALID,0.19375,
2011-04-10, 03:16:04,VALID,1004.19,VALID,0,INVALID,163.701,VALID,0,VALID,24.3052,VALID,349,VALID,0.137109,
2011-04-10, 03:17:04,VALID,1004.16,VALID,0,INVALID,163.708,VALID,0,VALID,24.3052,VALID,349,VALID,0.336328,
2011-04-10, 03:18:04,VALID,1004.17,VALID,0,INVALID,163.716,VALID,0,VALID,24.2857,VALID,353,VALID,0.573828,
2011-04-10, 03:19:04,VALID,1004.15,VALID,0,INVALID,163.716,VALID,0,VALID,24.2662,VALID,20,VALID,0.625781,
2011-04-10, 03:20:04,VALID,1004.14,VALID,0,INVALID,163.723,VALID,0,VALID,24.2078,VALID,20,VALID,0.654297,
2011-04-10, 03:21:04,VALID,1004.16,VALID,0,INVALID,163.701,VALID,0,VALID,24.1087,VALID,20,VALID,0.497266,
2011-04-10, 03:22:04,VALID,1004.13,VALID,0,INVALID,163.716,VALID,0,VALID,24.091,VALID,20,VALID,0.455859,
2011-04-10, 03:23:04,VALID,1004.14,VALID,0,INVALID,163.746,VALID,0,VALID,24.0503,VALID,20,VALID,0.416016,
2011-04-10, 03:24:04,VALID,1004.13,VALID,0,INVALID,163.723,VALID,0,VALID,24.0326,VALID,20,VALID,0.248437,
2011-04-10, 03:25:04,VALID,1004.09,VALID,0,INVALID,163.723,VALID,0,VALID,23.9919,VALID,20,VALID,0.0855469,
2011-04-10, 03:26:04,VALID,1004.11,VALID,0,INVALID,163.754,VALID,0,VALID,24.0308,VALID,20,VALID,0.395312,
2011-04-10, 03:27:04,VALID,1004.1,VALID,0,INVALID,163.701,VALID,0,VALID,24.091,VALID,19,VALID,0.419141,
2011-04-10, 03:28:04,VALID,1004.12,VALID,0,INVALID,163.723,VALID,0,VALID,24.091,VALID,1,VALID,0.426562,
2011-04-10, 03:29:04,VALID,1004.1,VALID,0,INVALID,163.731,VALID,0,VALID,24.13,VALID,356,VALID,0.511719,
2011-04-10, 03:30:04,VALID,1004.1,VALID,0,INVALID,163.739,VALID,0,VALID,24.1494,VALID,356,VALID,0.547266,
2011-04-10, 03:31:04,VALID,1004.14,VALID,0,INVALID,163.723,VALID,0,VALID,24.2468,VALID,299,VALID,0.337109,
2011-04-10, 03:32:04,VALID,1004.16,VALID,0,INVALID,163.701,VALID,0,VALID,24.2857,VALID,343,VALID,0.856641,
2011-04-10, 03:33:04,VALID,1004.16,VALID,0,INVALID,163.693,VALID,0,VALID,24.3849,VALID,345,VALID,0.825391,
2011-04-10, 03:34:04,VALID,1004.16,VALID,0,INVALID,163.693,VALID,0,VALID,24.4609,VALID,352,VALID,0.983594,
2011-04-10, 03:35:04,VALID,1004.16,VALID,0,INVALID,163.701,VALID,0,VALID,24.5582,VALID,8,VALID,0.635938,
2011-04-10, 03:36:04,VALID,1004.17,VALID,0,INVALID,163.678,VALID,0,VALID,24.6556,VALID,347,VALID,0.732422,
2011-04-10, 03:37:04,VALID,1004.15,VALID,0,INVALID,163.701,VALID,0,VALID,24.714,VALID,304,VALID,0.70625,
2011-04-10, 03:38:04,VALID,1004.17,VALID,0,INVALID,163.647,VALID,0,VALID,24.7316,VALID,276,VALID,0.146484,